BCS2MA EDDM-EDDL

Flight info

Callsign BCS2MA
Flight time 0h 55m
Altitude 32000
Route INPUD3Q INPUD Y102 TESDU DCT AMETU T852 TINSA T854 DOMUX DOMUX1A
Aircraft A306/H-SDE3FGHIRWY/LB1

Departure

Time 2026-05-04 18:02
Airport Munich Airport (EDDM)

Arrival

Time 2026-05-04 18:57
Airport Düsseldorf Airport (EDDL)
Time Latitude Longitude Altitude Speed Heading
2026-05-04 16:50 48.34896 11.77279 1491 ft 0 kts 353°
2026-05-04 17:44 48.34880 11.77281 1476 ft 4 kts 355°
2026-05-04 17:44 48.34856 11.77284 1479 ft 4 kts 359°
2026-05-04 17:44 48.34831 11.77283 1482 ft 4 kts
2026-05-04 17:44 48.34808 11.77277 1479 ft 4 kts 25°
2026-05-04 17:45 48.34792 11.77258 1476 ft 3 kts 79°
2026-05-04 17:45 48.34792 11.77255 1476 ft 2 kts 83°
2026-05-04 17:47 48.34793 11.77271 1479 ft 4 kts 83°
2026-05-04 17:48 48.34795 11.77331 1482 ft 7 kts 94°
2026-05-04 17:48 48.34775 11.77386 1480 ft 6 kts 142°
2026-05-04 17:48 48.34739 11.77401 1480 ft 5 kts 172°
2026-05-04 17:48 48.34711 11.77406 1480 ft 3 kts 172°
2026-05-04 17:49 48.34688 11.77411 1488 ft 5 kts 173°
2026-05-04 17:49 48.34639 11.77441 1476 ft 11 kts 135°
2026-05-04 17:49 48.34639 11.77571 1485 ft 16 kts 84°
2026-05-04 17:49 48.34651 11.77740 1480 ft 16 kts 83°
2026-05-04 17:50 48.34664 11.77903 1491 ft 16 kts 83°
2026-05-04 17:50 48.34676 11.78062 1491 ft 15 kts 83°
2026-05-04 17:50 48.34688 11.78218 1486 ft 15 kts 83°
2026-05-04 17:50 48.34701 11.78387 1482 ft 18 kts 83°
2026-05-04 17:51 48.34715 11.78575 1480 ft 17 kts 83°
2026-05-04 17:51 48.34728 11.78745 1480 ft 16 kts 83°
2026-05-04 17:51 48.34740 11.78897 1487 ft 14 kts 83°
2026-05-04 17:51 48.34750 11.79032 1489 ft 12 kts 83°
2026-05-04 17:52 48.34760 11.79158 1491 ft 13 kts 83°
2026-05-04 17:52 48.34772 11.79317 1482 ft 17 kts 83°
2026-05-04 17:52 48.34787 11.79506 1487 ft 19 kts 83°
2026-05-04 17:52 48.34802 11.79695 1483 ft 18 kts 83°
2026-05-04 17:53 48.34816 11.79877 1491 ft 17 kts 83°
2026-05-04 17:53 48.34830 11.80054 1483 ft 17 kts 83°
2026-05-04 17:53 48.34844 11.80226 1482 ft 16 kts 83°
2026-05-04 17:53 48.34803 11.80368 1482 ft 15 kts 143°
2026-05-04 17:54 48.34706 11.80404 1483 ft 14 kts 172°
2026-05-04 17:54 48.34679 11.80408 1481 ft 0 kts 174°
2026-05-04 17:56 48.34675 11.80409 1483 ft 1 kts 174°
2026-05-04 17:56 48.34668 11.80410 1487 ft 0 kts 174°
2026-05-04 17:58 48.34663 11.80411 1484 ft 3 kts 174°
2026-05-04 17:58 48.34630 11.80416 1479 ft 4 kts 173°
2026-05-04 17:59 48.34629 11.80416 1479 ft 1 kts 173°
2026-05-04 17:59 48.34604 11.80420 1484 ft 7 kts 174°
2026-05-04 17:59 48.34473 11.80344 1483 ft 0 kts 258°
2026-05-04 18:01 48.34473 11.80343 1491 ft 1 kts 258°
2026-05-04 18:01 48.34456 11.80157 1487 ft 46 kts 262°
2026-05-04 18:01 48.34394 11.79358 1480 ft 106 kts 263°
2026-05-04 18:02 48.34146 11.76160 1696 ft 186 kts 264°
2026-05-04 18:02 48.34040 11.74276 2564 ft 183 kts 266°
2026-05-04 18:02 48.33938 11.72354 3270 ft 191 kts 265°
2026-05-04 18:02 48.33782 11.70173 3503 ft 223 kts 263°
2026-05-04 18:03 48.33720 11.67787 4045 ft 234 kts 279°
2026-05-04 18:03 48.34453 11.65609 4673 ft 242 kts 316°
2026-05-04 18:03 48.35980 11.64412 5005 ft 260 kts 348°
2026-05-04 18:03 48.37805 11.63994 5437 ft 271 kts 354°
2026-05-04 18:04 48.39715 11.63654 6047 ft 281 kts 353°
2026-05-04 18:04 48.41665 11.63274 6657 ft 283 kts 352°
2026-05-04 18:04 48.45591 11.62420 6997 ft 287 kts 351°
2026-05-04 18:05 48.47565 11.61969 7135 ft 288 kts 350°
2026-05-04 18:05 48.49556 11.61509 7707 ft 291 kts 350°
2026-05-04 18:05 48.51582 11.61037 8578 ft 295 kts 349°
2026-05-04 18:05 48.53606 11.60511 9387 ft 299 kts 343°
2026-05-04 18:06 48.57694 11.58563 10545 ft 322 kts 338°
2026-05-04 18:06 48.59861 11.57392 10834 ft 340 kts 337°
2026-05-04 18:06 48.62134 11.56113 11129 ft 357 kts 336°
2026-05-04 18:07 48.64491 11.54766 11401 ft 373 kts 336°
2026-05-04 18:07 48.66979 11.53341 11757 ft 385 kts 336°
2026-05-04 18:07 48.69502 11.51901 12274 ft 391 kts 337°
2026-05-04 18:07 48.72033 11.50462 12839 ft 395 kts 337°
2026-05-04 18:08 48.74619 11.48995 13436 ft 399 kts 337°
2026-05-04 18:08 48.77229 11.47515 13994 ft 402 kts 337°
2026-05-04 18:08 48.79860 11.46021 14546 ft 405 kts 337°
2026-05-04 18:08 48.82511 11.44514 15132 ft 407 kts 337°
2026-05-04 18:09 48.87845 11.41472 16306 ft 412 kts 337°
2026-05-04 18:09 48.93237 11.38390 17446 ft 416 kts 337°
2026-05-04 18:10 48.95956 11.36834 18005 ft 419 kts 336°
2026-05-04 18:10 48.98681 11.35270 18604 ft 418 kts 337°
2026-05-04 18:10 49.01408 11.33705 19067 ft 420 kts 337°
2026-05-04 18:10 49.04155 11.32127 19491 ft 424 kts 337°
2026-05-04 18:11 49.06924 11.30534 19884 ft 427 kts 337°
2026-05-04 18:11 49.09719 11.28924 20291 ft 430 kts 337°
2026-05-04 18:11 49.12530 11.27301 20710 ft 433 kts 337°
2026-05-04 18:11 49.15354 11.25670 21119 ft 436 kts 337°
2026-05-04 18:12 49.18197 11.24027 21522 ft 438 kts 337°
2026-05-04 18:12 49.20094 11.22930 21780 ft 440 kts 336°
2026-05-04 18:12 49.22967 11.21280 22226 ft 442 kts 337°
2026-05-04 18:12 49.26796 11.19108 22726 ft 445 kts 337°
2026-05-04 18:13 49.29716 11.17460 23088 ft 448 kts 337°
2026-05-04 18:13 49.31696 11.16343 23276 ft 451 kts 337°
2026-05-04 18:13 49.37641 11.12979 23845 ft 457 kts 337°
2026-05-04 18:14 49.40629 11.11284 24173 ft 459 kts 337°
2026-05-04 18:14 49.43592 11.09600 24476 ft 460 kts 337°
2026-05-04 18:14 49.46600 11.07888 24796 ft 461 kts 337°
2026-05-04 18:15 49.52565 11.04190 25361 ft 462 kts 330°
2026-05-04 18:15 49.58158 10.99301 25906 ft 463 kts 326°
2026-05-04 18:15 49.60911 10.96741 26357 ft 459 kts 325°
2026-05-04 18:16 49.63618 10.94182 26895 ft 455 kts 325°
2026-05-04 18:16 49.66304 10.91628 27326 ft 453 kts 325°
2026-05-04 18:16 49.68981 10.89078 27736 ft 451 kts 325°
2026-05-04 18:17 49.74309 10.84013 28620 ft 448 kts 324°
2026-05-04 18:17 49.76962 10.81494 29000 ft 447 kts 324°
2026-05-04 18:17 49.82312 10.76407 29279 ft 456 kts 324°
2026-05-04 18:18 49.85033 10.73814 29413 ft 461 kts 324°
2026-05-04 18:18 49.87775 10.71200 29546 ft 465 kts 324°
2026-05-04 18:18 49.90535 10.68568 29704 ft 467 kts 324°
2026-05-04 18:18 49.93310 10.65919 29968 ft 468 kts 324°
2026-05-04 18:19 49.98818 10.60655 30636 ft 463 kts 324°
2026-05-04 18:19 50.01559 10.58027 30852 ft 463 kts 324°
2026-05-04 18:19 50.04297 10.55393 31114 ft 463 kts 324°
2026-05-04 18:20 50.07039 10.52751 31297 ft 465 kts 324°
2026-05-04 18:20 50.09800 10.50085 31462 ft 467 kts 324°
2026-05-04 18:20 50.12559 10.47420 31755 ft 466 kts 324°
2026-05-04 18:20 50.15311 10.44761 31930 ft 465 kts 324°
2026-05-04 18:21 50.18014 10.42085 31945 ft 452 kts 320°
2026-05-04 18:21 50.20393 10.39044 31962 ft 434 kts 311°
2026-05-04 18:21 50.24163 10.31902 31971 ft 424 kts 302°
2026-05-04 18:22 50.27634 10.24473 31949 ft 424 kts 301°
2026-05-04 18:22 50.31081 10.16990 31970 ft 424 kts 301°
2026-05-04 18:23 50.34530 10.09496 31970 ft 425 kts 301°
2026-05-04 18:23 50.37986 10.01984 31972 ft 425 kts 301°
2026-05-04 18:24 50.41442 9.94459 31978 ft 425 kts 301°
2026-05-04 18:24 50.44888 9.86936 31965 ft 425 kts 301°
2026-05-04 18:25 50.48308 9.79452 31968 ft 424 kts 301°
2026-05-04 18:25 50.51736 9.71922 31972 ft 424 kts 301°
2026-05-04 18:26 50.55163 9.64366 31965 ft 425 kts 301°
2026-05-04 18:26 50.58590 9.56793 31968 ft 425 kts 301°
2026-05-04 18:27 50.62012 9.49212 31968 ft 425 kts 300°
2026-05-04 18:27 50.63717 9.45429 31821 ft 423 kts 300°
2026-05-04 18:27 50.65416 9.41653 31188 ft 422 kts 300°
2026-05-04 18:28 50.67105 9.37894 30699 ft 418 kts 300°
2026-05-04 18:28 50.68777 9.34168 30200 ft 415 kts 300°
2026-05-04 18:28 50.70434 9.30472 29653 ft 411 kts 300°
2026-05-04 18:28 50.72077 9.26798 29131 ft 407 kts 300°
2026-05-04 18:29 50.73705 9.23151 28973 ft 406 kts 300°
2026-05-04 18:29 50.75329 9.19503 28966 ft 407 kts 300°
2026-05-04 18:29 50.78581 9.12184 28964 ft 407 kts 300°
2026-05-04 18:30 50.83436 9.01238 28966 ft 404 kts 300°
2026-05-04 18:31 50.86652 8.93957 28848 ft 402 kts 300°
2026-05-04 18:31 50.88255 8.90323 28197 ft 402 kts 300°
2026-05-04 18:31 50.89849 8.86706 27688 ft 399 kts 300°
2026-05-04 18:31 50.91433 8.83108 27193 ft 396 kts 300°
2026-05-04 18:32 50.92977 8.79594 26725 ft 393 kts 300°
2026-05-04 18:32 50.94535 8.76044 26252 ft 391 kts 300°
2026-05-04 18:32 50.96077 8.72521 26012 ft 387 kts 300°
2026-05-04 18:32 50.97611 8.69007 25974 ft 388 kts 300°
2026-05-04 18:33 50.99149 8.65478 25974 ft 389 kts 300°
2026-05-04 18:33 51.00714 8.61976 25970 ft 391 kts 304°
2026-05-04 18:33 51.02672 8.58929 25985 ft 397 kts 317°
2026-05-04 18:33 51.04853 8.56250 25716 ft 394 kts 316°
2026-05-04 18:34 51.06764 8.53181 25273 ft 388 kts 304°
2026-05-04 18:34 51.08288 8.49676 24788 ft 383 kts 297°
2026-05-04 18:34 51.09641 8.46049 24364 ft 380 kts 296°
2026-05-04 18:34 51.10948 8.42419 23950 ft 377 kts 296°
2026-05-04 18:35 51.12259 8.38745 23490 ft 376 kts 296°
2026-05-04 18:35 51.13521 8.35199 22871 ft 372 kts 296°
2026-05-04 18:35 51.14789 8.31627 22336 ft 366 kts 296°
2026-05-04 18:35 51.16150 8.28271 22042 ft 356 kts 305°
2026-05-04 18:36 51.17831 8.25436 21580 ft 349 kts 313°
2026-05-04 18:36 51.19595 8.22818 21005 ft 344 kts 313°
2026-05-04 18:36 51.21349 8.20239 20402 ft 341 kts 313°
2026-05-04 18:36 51.23088 8.17678 19786 ft 339 kts 313°
2026-05-04 18:37 51.24812 8.15134 19178 ft 336 kts 313°
2026-05-04 18:37 51.26523 8.12607 18601 ft 334 kts 313°
2026-05-04 18:37 51.28226 8.10078 17896 ft 335 kts 313°
2026-05-04 18:37 51.29929 8.07532 17199 ft 334 kts 313°
2026-05-04 18:38 51.31614 8.05001 16548 ft 331 kts 313°
2026-05-04 18:38 51.33279 8.02485 15919 ft 328 kts 313°
2026-05-04 18:38 51.34932 7.99967 15487 ft 328 kts 313°
2026-05-04 18:38 51.36571 7.97457 15173 ft 325 kts 313°
2026-05-04 18:39 51.38197 7.94960 14813 ft 323 kts 313°
2026-05-04 18:39 51.39810 7.92475 14456 ft 321 kts 313°
2026-05-04 18:39 51.41415 7.89990 14113 ft 320 kts 313°
2026-05-04 18:39 51.43005 7.87519 13983 ft 318 kts 313°
2026-05-04 18:40 51.44595 7.85044 13966 ft 319 kts 313°
2026-05-04 18:40 51.46175 7.82547 13957 ft 318 kts 309°
2026-05-04 18:40 51.47249 7.79585 13968 ft 309 kts 281°
2026-05-04 18:40 51.47291 7.76228 13978 ft 300 kts 255°
2026-05-04 18:41 51.46765 7.72993 13964 ft 300 kts 251°
2026-05-04 18:41 51.46186 7.69766 13961 ft 301 kts 251°
2026-05-04 18:41 51.45602 7.66536 13962 ft 302 kts 251°
2026-05-04 18:41 51.45017 7.63301 13961 ft 303 kts 251°
2026-05-04 18:42 51.44430 7.60053 13661 ft 305 kts 251°
2026-05-04 18:42 51.43776 7.56837 13272 ft 301 kts 243°
2026-05-04 18:42 51.42954 7.53791 12840 ft 296 kts 246°
2026-05-04 18:42 51.42157 7.50767 12309 ft 294 kts 244°
2026-05-04 18:43 51.41363 7.47757 11836 ft 292 kts 246°
2026-05-04 18:43 51.40666 7.44703 11357 ft 291 kts 249°
2026-05-04 18:43 51.40043 7.41640 10898 ft 289 kts 251°
2026-05-04 18:43 51.39462 7.38575 10440 ft 287 kts 252°
2026-05-04 18:44 51.38906 7.35515 9990 ft 285 kts 252°
2026-05-04 18:44 51.38729 7.34527 9842 ft 284 kts 252°
2026-05-04 18:44 51.38157 7.29362 9144 ft 275 kts 256°
2026-05-04 18:44 51.37417 7.26695 8897 ft 253 kts 232°
2026-05-04 18:45 51.36269 7.24670 8514 ft 240 kts 224°
2026-05-04 18:45 51.35082 7.22824 7998 ft 236 kts 223°
2026-05-04 18:45 51.33919 7.21023 7554 ft 229 kts 223°
2026-05-04 18:45 51.32782 7.19254 7156 ft 226 kts 223°
2026-05-04 18:46 51.31673 7.17518 7007 ft 227 kts 223°
2026-05-04 18:46 51.30547 7.15746 6974 ft 228 kts 224°
2026-05-04 18:46 51.29698 7.13615 6969 ft 233 kts 251°
2026-05-04 18:46 51.29669 7.11027 6968 ft 240 kts 281°
2026-05-04 18:47 51.30512 7.08707 6975 ft 248 kts 312°
2026-05-04 18:47 51.32020 7.07333 6969 ft 256 kts 343°
2026-05-04 18:47 51.33796 7.07318 6978 ft 259 kts 14°
2026-05-04 18:47 51.35370 7.08668 6899 ft 258 kts 42°
2026-05-04 18:48 51.36597 7.10762 6454 ft 256 kts 52°
2026-05-04 18:48 51.37699 7.12965 6058 ft 251 kts 53°
2026-05-04 18:48 51.38774 7.15149 5607 ft 249 kts 53°
2026-05-04 18:48 51.39842 7.17330 5175 ft 248 kts 53°
2026-05-04 18:49 51.40907 7.19502 4727 ft 247 kts 53°
2026-05-04 18:49 51.41966 7.21664 4233 ft 247 kts 50°
2026-05-04 18:49 51.43322 7.23302 3787 ft 245 kts 21°
2026-05-04 18:49 51.44973 7.23632 3405 ft 238 kts 350°
2026-05-04 18:50 51.46441 7.22585 3076 ft 231 kts 317°
2026-05-04 18:50 51.47300 7.20460 2995 ft 229 kts 284°
2026-05-04 18:50 51.47423 7.17925 2994 ft 229 kts 265°
2026-05-04 18:50 51.47193 7.15411 2998 ft 228 kts 252°
2026-05-04 18:51 51.46540 7.13113 2990 ft 226 kts 236°
2026-05-04 18:51 51.45634 7.11092 2998 ft 226 kts 231°
2026-05-04 18:51 51.44689 7.09082 2988 ft 226 kts 231°
2026-05-04 18:51 51.43734 7.07077 3008 ft 226 kts 231°
2026-05-04 18:52 51.42770 7.05087 3005 ft 226 kts 231°
2026-05-04 18:52 51.41812 7.03124 2979 ft 216 kts 230°
2026-05-04 18:52 51.40928 7.01315 2982 ft 197 kts 230°
2026-05-04 18:52 51.40123 6.99662 2980 ft 180 kts 230°
2026-05-04 18:53 51.39373 6.98101 2999 ft 176 kts 231°
2026-05-04 18:53 51.38638 6.96541 3002 ft 175 kts 231°
2026-05-04 18:53 51.37915 6.94974 2862 ft 175 kts 232°
2026-05-04 18:53 51.37187 6.93415 2606 ft 175 kts 231°
2026-05-04 18:54 51.36453 6.91876 2370 ft 173 kts 231°
2026-05-04 18:54 51.35728 6.90354 2118 ft 171 kts 231°
2026-05-04 18:54 51.35015 6.88850 1888 ft 169 kts 230°
2026-05-04 18:54 51.34326 6.87400 1698 ft 157 kts 230°
2026-05-04 18:55 51.33697 6.86077 1467 ft 142 kts 229°
2026-05-04 18:55 51.32533 6.83604 1051 ft 137 kts 229°
2026-05-04 18:55 51.31950 6.82375 853 ft 141 kts 229°
2026-05-04 18:56 51.31359 6.81120 680 ft 142 kts 230°
2026-05-04 18:56 51.30762 6.79891 465 ft 139 kts 231°
2026-05-04 18:56 51.30172 6.78653 299 ft 142 kts 232°
2026-05-04 18:56 51.29577 6.77412 127 ft 134 kts 232°
2026-05-04 18:57 51.29089 6.76381 122 ft 94 kts 233°
2026-05-04 18:57 51.28873 6.75925 120 ft 64 kts 233°
2026-05-04 18:57 51.28647 6.75682 121 ft 18 kts 187°
2026-05-04 18:57 51.28600 6.75681 121 ft 0 kts 175°
2026-05-04 18:58 51.28585 6.75684 122 ft 5 kts 172°
2026-05-04 18:58 51.28533 6.75705 123 ft 10 kts 159°
2026-05-04 18:59 51.28491 6.75743 124 ft 0 kts 144°
2026-05-04 19:00 51.28490 6.75744 124 ft 2 kts 144°
2026-05-04 19:00 51.28462 6.75777 119 ft 8 kts 143°
2026-05-04 19:00 51.28402 6.75850 119 ft 14 kts 143°
2026-05-04 19:00 51.28320 6.75952 123 ft 13 kts 142°
2026-05-04 19:01 51.28255 6.76024 119 ft 10 kts 148°
2026-05-04 19:01 51.28231 6.76049 120 ft 0 kts 147°
2026-05-04 19:03 51.28204 6.76078 120 ft 10 kts 140°
2026-05-04 19:03 51.28219 6.76208 122 ft 17 kts 53°
2026-05-04 19:03 51.28301 6.76380 119 ft 22 kts 52°
2026-05-04 19:03 51.28401 6.76589 119 ft 21 kts 53°
2026-05-04 19:04 51.28382 6.76719 120 ft 13 kts 146°
2026-05-04 19:04 51.28347 6.76863 119 ft 17 kts 98°
2026-05-04 19:04 51.28392 6.77031 120 ft 19 kts 53°
2026-05-04 19:04 51.28480 6.77219 120 ft 24 kts 52°
2026-05-04 19:05 51.28581 6.77439 120 ft 22 kts 52°
2026-05-04 19:05 51.28652 6.77591 120 ft 15 kts 53°
2026-05-04 19:05 51.28663 6.77714 120 ft 12 kts 83°
2026-05-04 19:05 51.28719 6.77846 120 ft 15 kts 52°
2026-05-04 19:06 51.28780 6.77969 119 ft 13 kts 51°
2026-05-04 19:06 51.28827 6.78058 120 ft 6 kts 40°
2026-05-04 19:06 51.28857 6.78064 120 ft 4 kts 345°
2026-05-04 19:06 51.28878 6.78042 122 ft 0 kts 324°